(230624) = 2003 GU39 = 2007 JK35

Discovered at Socorro on 2003-04-08 by LINEAR.

Orbit

Orbit type: Main Belt

Note: WebGL enabled browser required.

epoch2023-09-13.0
epoch JD2460200.5
perihelion date2021-06-17.31412
perihelion JD2459382.81412
argument of perihelion (°)359.72665
ascending node (°)137.47484
inclination (°)6.22541
eccentricity0.1353887
perihelion distance (AU)2.0850326
Tisserand w.r.t. Jupiter3.5
ΔV w.r.t. Earth (km/sec)9.2
semimajor axis (AU)2.4115260
mean anomaly (°)215.20503
mean daily motion (°/day)0.26318790
aphelion distance (AU)2.738
period (years)3.74
P-vector [x]-0.73376655
P-vector [y]0.62354447
P-vector [z]0.26977574
Q-vector [x]-0.67543638
Q-vector [y]-0.71234742
Q-vector [z]-0.19064847
absolute magnitude16.92
phase slope0.15
uncertainty0
referenceMPEC 2023-R58
observations used476
oppositions14
arc length (days)7988
first opposition used2001
last opposition used2023
residual rms (arc-secs)0.72
perturbers coarse indicatorM-v
perturbers precise indicator003Ek
first observation date used2001-10-24.0
last observation date used2023-09-07.0
computer nameMPCLINUX
JD of orbit computation2456937.469061
perihelion JD uncertainty (days)9.4717E-05
argument of perihelion uncertainty (°)5.7453E-05
ascending node uncertainty (°)4.9583E-05
inclination uncertainty (°)6.2860E-06
eccentricity uncertainty 5.5826E-08
perihelion distance uncertainty (AU)1.3643E-07
Minimum Orbit Intersection Distances (in AU)
for orbit epoch: 2460200.5, reference: E2023-SF4
Mercury1.73791
Venus1.36799
Earth1.09727
Mars0.4257
Jupiter2.28373
Saturn6.79699
Uranus16.3159
Neptune27.2526

Observations

500 total observations over interval: 2001 10 24.41682 – 2023 09 21.391396
These data are available for download (format description).

Date (UT) J2000 RA J2000 Dec Magn Location Ref
2001 10 24.41682 02 29 38.49 +04 03 54.9 19.9   644 – Palomar Mountain/NEAT MPS 210704
2001 10 24.43788 02 29 37.28 +04 03 47.2 20.2   644 – Palomar Mountain/NEAT MPS 210704
2001 10 24.45925 02 29 36.02 +04 03 38.8 20.4   644 – Palomar Mountain/NEAT MPS 210704
2003 04 08.32203 13 49 34.10 -00 30 13.1 19.1   704 – Lincoln Laboratory ETS, New Mexico MPS 76507
2003 04 08.33513 13 49 33.49 -00 30 07.0 19.2   704 – Lincoln Laboratory ETS, New Mexico MPS 76507
2003 04 08.35903 13 49 32.25 -00 29 56.0 19.6   704 – Lincoln Laboratory ETS, New Mexico MPS 76507
2003 04 08.37134 13 49 31.54 -00 29 50.8 19.5   704 – Lincoln Laboratory ETS, New Mexico MPS 76507
2003 04 10.38612 13 47 47.32 -00 15 36.3 19.8 V 691 – Steward Observatory, Kitt Peak-Spacewatch MPS 76507
2003 04 10.41320 13 47 45.86 -00 15 25.1 19.6 V 691 – Steward Observatory, Kitt Peak-Spacewatch MPS 76507
2003 04 10.44075 13 47 44.34 -00 15 13.4 19.9 V 691 – Steward Observatory, Kitt Peak-Spacewatch MPS 76507
2003 04 11.27684 13 47 01.00 -00 09 25.3 20.4   644 – Palomar Mountain/NEAT MPS 76507
2003 04 11.34468 13 46 57.27 -00 08 57.3 19.4   644 – Palomar Mountain/NEAT MPS 76507
2003 04 11.40712 13 46 53.85 -00 08 31.4 19.5   644 – Palomar Mountain/NEAT MPS 76507
2004 07 17.39152 21 41 10.11 -13 03 59.8 19.7 R 807 – Cerro Tololo Observatory, La Serena MPS 210704
2004 07 17.43916 21 41 08.23 -13 04 14.4   807 – Cerro Tololo Observatory, La Serena MPS 210704
2005 11 25.28657 04 50 23.64 +12 11 45.7 18.0 V 703 – Catalina Sky Survey MPS 286876
2005 11 25.29353 04 50 23.20 +12 11 42.0 19.1 V 703 – Catalina Sky Survey MPS 286876
2005 11 25.30049 04 50 22.84 +12 11 41.8 19.3 V 703 – Catalina Sky Survey MPS 286876
2005 11 25.30741 04 50 22.41 +12 11 39.9 19.4 V 703 – Catalina Sky Survey MPS 286876
2005 12 07.27039 04 38 00.74 +11 58 25.2 20.1 V 703 – Catalina Sky Survey MPS 211048
2005 12 07.27789 04 38 00.27 +11 58 23.4 19.2 V 703 – Catalina Sky Survey MPS 211048
2005 12 07.28542 04 37 59.70 +11 58 23.8 18.9 V 703 – Catalina Sky Survey MPS 211048
2005 12 07.29289 04 37 59.30 +11 58 23.1 19.1 V 703 – Catalina Sky Survey MPS 211048
2005 12 08.26256 04 36 58.50 +11 58 03.2 19.5 C 704 – Lincoln Laboratory ETS, New Mexico MPS 294401
2005 12 08.27573 04 36 57.67 +11 58 04.0 19.5 C 704 – Lincoln Laboratory ETS, New Mexico MPS 294401
2005 12 08.28857 04 36 56.93 +11 58 02.6 19.4 C 704 – Lincoln Laboratory ETS, New Mexico MPS 294401
2005 12 08.30164 04 36 55.93 +11 58 02.7 19.3 C 704 – Lincoln Laboratory ETS, New Mexico MPS 294401
2006 02 04.11175 04 17 15.90 +15 08 52.4 19.8 V G96 – Mt. Lemmon Survey MPS 211048
2006 02 04.11727 04 17 16.08 +15 08 54.2 19.9 V G96 – Mt. Lemmon Survey MPS 211048
2006 02 04.12281 04 17 16.26 +15 08 56.0 20.1 V G96 – Mt. Lemmon Survey MPS 211048
2006 02 04.12826 04 17 16.44 +15 08 58.2 19.7 V G96 – Mt. Lemmon Survey MPS 211048
2007 03 15.50133 16 22 07.39 -13 30 16.1 19.7 V G96 – Mt. Lemmon Survey MPS 210704
2007 03 15.50806 16 22 07.50 -13 30 15.6 19.3 V G96 – Mt. Lemmon Survey MPS 210704
2007 03 15.51142 16 22 07.71 -13 30 15.4 20.5 V G96 – Mt. Lemmon Survey MPS 210704
2007 05 10.39877 16 10 52.17 -10 32 08.8 19.5 V G96 – Mt. Lemmon Survey MPS 209185
2007 05 10.40461 16 10 51.88 -10 32 07.7 19.5 V G96 – Mt. Lemmon Survey MPS 209185
2007 05 10.41047 16 10 51.52 -10 32 06.7 19.6 V G96 – Mt. Lemmon Survey MPS 209185
2007 05 10.41637 16 10 51.20 -10 32 05.1 19.7 V G96 – Mt. Lemmon Survey MPS 209185
2007 05 13.24475 16 08 13.77 -10 23 22.7 20.2 R H07 – 7300 Observatory, Cloudcroft MPS 209185
2007 05 13.25231 16 08 13.30 -10 23 21.4 20.2 R H07 – 7300 Observatory, Cloudcroft MPS 209185
2007 05 14.22788 16 07 17.75 -10 20 29.1 20.6 R H07 – 7300 Observatory, Cloudcroft MPS 209185
2007 05 14.23520 16 07 17.42 -10 20 28.5 20.0 R H07 – 7300 Observatory, Cloudcroft MPS 209185
2007 06 08.24279 15 43 52.38 -09 41 36.9 20.0 R H07 – 7300 Observatory, Cloudcroft MPS 210589
2007 06 08.25020 15 43 51.95 -09 41 36.7 20.3 R H07 – 7300 Observatory, Cloudcroft MPS 210589
2007 06 08.25758 15 43 51.57 -09 41 36.0 20.4 R H07 – 7300 Observatory, Cloudcroft MPS 210589
2007 06 12.27415 15 40 48.29 -09 42 49.5 20.0 V 691 – Steward Observatory, Kitt Peak-Spacewatch MPS 210704
2007 06 12.29181 15 40 47.49 -09 42 50.4 20.4 V 691 – Steward Observatory, Kitt Peak-Spacewatch MPS 210704
2007 06 12.30704 15 40 46.80 -09 42 50.3 20.2 V 691 – Steward Observatory, Kitt Peak-Spacewatch MPS 210704
2009 12 20.37555 08 00 11.04 +14 40 37.3   691 – Steward Observatory, Kitt Peak-Spacewatch MPS 308601
2009 12 20.39321 08 00 10.43 +14 40 40.6   691 – Steward Observatory, Kitt Peak-Spacewatch MPS 308601
2009 12 20.41089 08 00 09.83 +14 40 44.0   691 – Steward Observatory, Kitt Peak-Spacewatch MPS 308601
2010 01 06.30153 07 47 25.94 +15 54 31.6 19.6 V 703 – Catalina Sky Survey MPS 309272
2010 01 06.30723 07 47 25.62 +15 54 33.8 19.0 V 703 – Catalina Sky Survey MPS 309272
2010 01 06.31299 07 47 25.22 +15 54 34.6 19.6 V 703 – Catalina Sky Survey MPS 309272
2010 01 06.31875 07 47 24.90 +15 54 37.7 19.2 V 703 – Catalina Sky Survey MPS 309272
2010 01 06.32490 07 47 24.57 +15 54 40.2 18.6 V 703 – Catalina Sky Survey MPS 309272
2010 01 06.33072 07 47 24.14 +15 54 41.1 19.2 V 703 – Catalina Sky Survey MPS 309272
2010 01 06.33651 07 47 23.85 +15 54 43.0 19.3 V 703 – Catalina Sky Survey MPS 309272
2010 01 06.34227 07 47 23.53 +15 54 46.4 19.0 V 703 – Catalina Sky Survey MPS 309272
2010 01 13.26032 07 40 38.87 +16 35 23.0 19.2   704 – Lincoln Laboratory ETS, New Mexico MPS 310155
2010 01 13.27246 07 40 38.09 +16 35 27.7 19.2   704 – Lincoln Laboratory ETS, New Mexico MPS 310155
2010 01 13.28450 07 40 37.36 +16 35 33.0 19.5   704 – Lincoln Laboratory ETS, New Mexico MPS 310155
2010 01 13.30849 07 40 35.86 +16 35 44.0 19.1   704 – Lincoln Laboratory ETS, New Mexico MPS 310155
2010 01 18.28067 07 35 36.92 +17 06 58.9 19.8   704 – Lincoln Laboratory ETS, New Mexico MPS 311162
2010 01 18.29319 07 35 36.14 +17 07 01.6 20.0   704 – Lincoln Laboratory ETS, New Mexico MPS 311162
2010 01 18.30570 07 35 35.31 +17 07 07.4 19.9   704 – Lincoln Laboratory ETS, New Mexico MPS 311162
2010 01 18.31823 07 35 34.53 +17 07 12.7 19.8   704 – Lincoln Laboratory ETS, New Mexico MPS 311162
2010 03 15.18439 07 20 50.06 +21 38 45.0 20.7 V G96 – Mt. Lemmon Survey MPS 319188
2010 03 15.19149 07 20 50.35 +21 38 45.9 20.5 V G96 – Mt. Lemmon Survey MPS 319188
2010 03 15.19873 07 20 50.60 +21 38 46.8 20.7 V G96 – Mt. Lemmon Survey MPS 319188
2010 03 15.20602 07 20 50.92 +21 38 47.7 20.7 V G96 – Mt. Lemmon Survey MPS 319188
2010 04 09.15801 07 46 28.81 +21 54 49.4 21.1 V G96 – Mt. Lemmon Survey MPS 322102
2010 04 09.16726 07 46 29.49 +21 54 48.4 21.2 V G96 – Mt. Lemmon Survey MPS 322102
2010 04 09.17649 07 46 30.21 +21 54 48.1 21.1 V G96 – Mt. Lemmon Survey MPS 322102
2010 04 09.18573 07 46 30.97 +21 54 47.5 20.9 V G96 – Mt. Lemmon Survey MPS 322102
2012 09 21.32960 00 46 28.81 -03 05 18.8 19.6 V 703 – Catalina Sky Survey MPS 433126
2012 09 21.33524 00 46 28.38 -03 05 20.9 19.9 V 703 – Catalina Sky Survey MPS 433126
2012 09 21.34090 00 46 28.16 -03 05 22.5 20.3 V 703 – Catalina Sky Survey MPS 433126
2012 09 21.34655 00 46 27.94 -03 05 25.9 20.8 V 703 – Catalina Sky Survey MPS 433126
2012 09 21.36733 00 46 26.94 -03 05 35.8 20.6 V G96 – Mt. Lemmon Survey MPS 433126
2012 09 21.37399 00 46 26.61 -03 05 39.0 20.5 V G96 – Mt. Lemmon Survey MPS 433126
2012 09 21.38074 00 46 26.25 -03 05 42.5 20.3 V G96 – Mt. Lemmon Survey MPS 433126
2012 09 21.38751 00 46 25.93 -03 05 45.2 20.4 V G96 – Mt. Lemmon Survey MPS 433126
2012 10 06.346795 00 33 28.446 -04 56 38.65 20.2 i F51 – Pan-STARRS 1, Haleakala MPS 437532
2012 10 06.358925 00 33 27.789 -04 56 43.69 20.1 i F51 – Pan-STARRS 1, Haleakala MPS 437532
2012 10 19.335264 00 22 40.509 -06 13 01.64 20.3 r F51 – Pan-STARRS 1, Haleakala MPS 439239
2012 10 19.346484 00 22 39.998 -06 13 04.97 20.2 r F51 – Pan-STARRS 1, Haleakala MPS 439239
2012 10 21.355410 00 21 11.439 -06 22 15.28 20.0 i F51 – Pan-STARRS 1, Haleakala MPS 439239
2012 10 21.367080 00 21 10.926 -06 22 18.27 20.5 r F51 – Pan-STARRS 1, Haleakala MPS 439240
2012 10 21.377404 00 21 10.448 -06 22 20.81 20.5 r F51 – Pan-STARRS 1, Haleakala MPS 439240
